Wind_Speed
69 69 68 68 68 68 67 66 66 65 64 64 66 66 67 67 68 68 68 69 69 69 69 69 69 69 69 68 67 67 66 65 65 65 65 66 67 72
71 70 68 68 69 68 66 66 67 66 65 64 66 67 68 68 69 69 68 68 68 67 68 68 67 67 67 66 65 65 63 62 61 61 62 63 63 67
71 70 68 68 67 67 66 66 66 67 67 65 66 66 67 67 67 67 68 67 66 66 66 65 65 65 64 63 63 62 61 59 58 57 58 59 60 63
67 67 66 67 67 67 66 66 66 67 67 65 64 64 64 65 65 66 66 65 64 64 63 63 63 63 62 61 61 60 59 57 55 54 56 58 60 62
66 65 65 66 66 65 65 66 66 67 66 65 63 63 63 64 65 65 64 63 63 62 61 61 62 61 60 60 59 59 58 55 53 52 54 58 61 63
64 63 63 63 63 64 65 65 65 65 65 65 64 63 63 63 64 64 62 61 61 60 60 60 60 60 59 59 58 57 56 54 52 51 53 56 59 62
63 62 61 61 62 63 63 63 64 64 64 64 64 62 61 62 62 62 61 60 59 59 60 59 60 59 58 58 56 55 53 51 50 50 52 55 59 62
61 60 59 59 60 61 61 61 62 62 62 62 61 60 60 61 61 60 60 59 58 58 60 58 59 58 56 55 54 53 51 49 49 48 50 55 60 63
59 59 58 58 59 59 59 60 59 60 60 60 60 59 59 59 59 59 59 58 57 57 58 56 56 55 53 52 51 49 47 46 46 46 48 55 60 62
56 56 55 56 56 58 58 58 57 57 58 59 58 58 58 57 57 57 57 56 55 55 56 55 54 53 50 49 48 45 43 43 43 45 47 53 59 62
54 54 54 54 55 56 55 55 55 55 56 56 56 55 55 54 55 55 55 54 54 53 54 55 52 50 47 46 44 42 40 39 39 41 46 53 59 63
52 52 52 52 52 53 53 52 53 53 53 53 53 52 52 52 53 53 53 53 52 51 51 52 50 48 44 41 41 39 37 36 36 38 43 51 58 64
50 50 50 49 50 50 50 50 50 50 50 50 50 49 49 49 49 50 50 50 50 48 48 48 46 45 43 39 37 36 34 33 34 36 42 51 60 65
47 47 47 46 47 47 48 48 48 48 47 47 47 47 47 47 46 46 46 46 46 46 45 45 44 42 40 37 34 33 32 31 32 35 41 51 61 65
44 44 43 43 44 44 45 45 45 45 45 44 44 44 44 44 43 43 43 43 43 43 43 42 41 40 38 35 32 30 29 29 30 33 40 51 60 65
42 41 41 41 41 41 42 42 42 42 42 42 42 41 41 40 40 41 40 41 41 40 41 40 39 37 35 32 30 28 27 27 29 32 38 48 59 66
40 39 39 39 39 39 39 39 39 39 39 39 38 38 37 37 38 38 39 39 39 38 37 37 36 34 32 29 27 25 25 25 27 31 37 47 58 65
38 37 37 36 37 36 36 36 37 36 36 35 35 35 35 36 36 37 37 37 36 35 35 34 32 30 28 26 24 23 22 22 25 30 35 44 55 63
36 35 34 34 34 34 34 34 34 33 33 33 33 34 34 34 35 35 35 35 34 33 33 31 29 27 25 22 20 20 20 21 24 28 34 42 53 62
33 33 32 33 33 33 32 31 31 30 31 32 33 33 33 34 34 33 33 33 32 31 30 29 27 25 22 19 18 19 19 20 23 28 34 41 51 61
31 31 30 31 31 30 30 29 29 29 30 32 32 32 33 33 32 31 31 31 31 29 28 26 25 22 19 17 17 17 18 19 23 28 34 41 49 58
29 28 29 29 29 29 28 28 28 29 30 31 31 31 31 31 30 30 30 30 29 28 26 25 23 21 18 16 15 15 17 20 23 28 35 41 48 56
27 26 27 27 27 27 27 27 27 28 29 30 30 30 30 29 29 29 28 28 28 27 25 24 21 18 15 14 13 14 16 20 25 30 35 41 48 56
Wind_Direction
292 292 293 293 293 293 292 292 292 292 292 292 292 292 292 292 293 293 293 293 293 293 293 292 291 289 288 287 283 281 278 274 269 263 257 250 244 237
291 291 292 292 292 293 292 292 292 292 292 293 292 292 292 293 293 293 294 294 294 294 293 292 291 290 289 288 284 281 278 274 267 261 254 247 241 236
291 291 291 291 291 291 291 292 292 292 292 293 293 293 293 294 293 294 294 294 294 294 293 292 292 291 291 289 285 282 278 273 266 258 251 244 238 233
290 289 290 289 289 290 290 291 291 292 292 293 293 294 294 294 294 294 295 295 295 294 294 293 293 292 292 289 287 283 278 272 265 256 248 241 234 229
289 288 288 288 288 288 289 290 291 292 292 293 294 294 294 294 294 295 295 295 295 295 294 293 293 293 292 290 287 283 278 271 264 256 247 240 232 226
289 288 288 287 288 288 289 290 290 291 292 293 293 293 294 294 295 295 295 295 295 294 294 294 294 293 292 291 287 284 278 271 263 255 247 238 230 224
289 288 288 287 288 289 289 290 290 291 292 292 294 294 294 294 295 295 295 295 295 295 295 295 295 294 292 291 288 284 278 270 263 255 246 234 224 220
290 289 288 288 289 289 289 290 291 292 292 293 293 294 295 295 296 296 296 296 296 295 295 296 295 295 293 291 289 283 277 269 262 253 243 229 220 216
291 289 288 288 288 289 290 290 291 292 293 293 294 295 296 296 296 296 296 297 298 297 297 297 296 295 294 292 289 283 275 267 260 249 238 224 216 213
291 289 288 289 289 288 288 289 291 292 293 294 294 295 296 296 296 297 297 297 297 297 298 298 297 296 294 291 289 284 274 266 257 245 233 221 214 211
291 290 290 289 289 289 289 290 291 292 293 294 294 295 295 296 296 297 298 298 298 298 298 299 300 297 294 292 289 283 273 265 254 242 231 219 212 209
292 292 290 290 290 290 290 290 291 292 292 293 295 296 296 296 297 297 298 298 300 299 299 299 299 298 295 292 288 282 273 262 251 241 228 217 210 207
293 293 291 290 290 290 290 292 292 292 293 295 296 297 297 297 297 299 300 300 301 301 300 300 299 297 295 293 287 280 271 259 249 238 225 215 208 206
295 294 292 291 291 291 292 292 293 294 295 296 297 298 298 298 299 300 301 302 302 302 301 300 299 297 294 292 286 278 268 256 246 234 222 213 206 204
296 295 293 293 292 293 293 293 293 295 296 298 298 299 299 300 300 301 302 303 304 303 302 302 300 297 294 291 285 276 264 253 244 232 220 212 206 203
298 296 294 294 294 294 295 295 295 296 297 298 299 300 300 301 302 303 304 305 305 304 304 303 301 297 294 290 283 274 264 251 239 228 218 210 205 203
299 298 296 295 296 296 296 296 297 298 299 299 300 301 302 303 304 305 306 306 307 307 305 303 301 298 294 289 281 273 262 249 235 223 216 209 204 201
299 298 297 296 297 297 297 298 299 300 300 300 301 303 304 305 305 306 307 309 309 309 307 305 302 298 294 288 280 270 257 244 229 219 212 206 201 198
300 298 297 298 298 299 299 300 301 301 301 301 303 304 306 307 307 307 308 310 310 310 310 308 305 300 295 286 275 264 250 237 224 215 209 202 198 195
300 298 298 298 299 300 301 302 302 302 303 304 305 306 307 307 308 308 309 311 312 312 311 310 307 303 296 284 271 260 247 232 219 210 204 198 194 193
300 298 298 299 299 300 302 303 302 303 304 306 307 307 308 308 308 308 309 311 313 313 312 311 308 304 295 282 269 255 240 226 213 205 198 194 191 190
300 299 299 300 301 302 303 303 303 304 306 308 309 309 309 309 309 308 309 310 312 313 311 310 307 303 295 282 267 250 233 219 206 198 193 188 187 186
300 300 301 303 303 303 303 303 304 306 309 310 311 311 310 310 309 310 310 310 311 311 310 310 307 302 293 278 261 242 224 210 198 190 187 185 183 184
Height
5583 5578 5573 5568 5562 5558 5553 5548 5543 5539 5537 5532 5524 5518 5511 5506 5500 5495 5489 5482 5475 5468 5461 5454 5447 5441 5434 5429 5423 5418 5414 5411 5410 5410 5412 5416 5422 5430
5564 5559 5555 5550 5544 5539 5534 5529 5524 5519 5517 5514 5505 5498 5492 5486 5480 5474 5467 5461 5453 5446 5439 5431 5425 5418 5412 5406 5400 5395 5391 5388 5386 5387 5389 5394 5400 5407
5545 5541 5536 5531 5526 5521 5515 5510 5505 5500 5496 5494 5486 5479 5472 5466 5460 5453 5446 5440 5433 5425 5417 5410 5403 5397 5390 5384 5378 5373 5369 5366 5365 5366 5368 5373 5379 5387
5526 5521 5517 5512 5507 5502 5497 5492 5487 5481 5477 5473 5468 5460 5454 5447 5440 5433 5426 5419 5413 5405 5398 5391 5383 5377 5370 5363 5357 5352 5348 5346 5345 5346 5349 5354 5360 5367
5507 5503 5499 5493 5489 5484 5478 5474 5468 5463 5457 5453 5449 5442 5435 5428 5420 5414 5407 5400 5393 5386 5379 5372 5365 5357 5350 5344 5338 5332 5328 5327 5326 5326 5329 5333 5340 5348
5489 5484 5480 5475 5470 5465 5460 5455 5450 5444 5439 5434 5430 5424 5417 5409 5401 5395 5389 5382 5375 5367 5360 5353 5346 5339 5332 5325 5319 5314 5310 5307 5307 5307 5310 5314 5321 5330
5471 5466 5461 5456 5452 5446 5442 5437 5431 5426 5421 5415 5411 5405 5399 5391 5383 5376 5369 5363 5357 5348 5341 5335 5327 5321 5314 5307 5301 5295 5291 5289 5288 5289 5291 5296 5304 5314
5453 5448 5443 5438 5434 5428 5424 5419 5414 5408 5403 5397 5392 5386 5380 5372 5364 5357 5350 5344 5340 5333 5322 5317 5309 5303 5296 5289 5283 5278 5274 5272 5271 5271 5274 5280 5288 5298
5435 5430 5425 5421 5416 5411 5406 5401 5396 5390 5385 5380 5374 5368 5361 5354 5346 5340 5332 5325 5320 5313 5304 5299 5292 5285 5279 5272 5267 5262 5258 5256 5255 5256 5259 5265 5273 5284
5418 5413 5408 5404 5399 5394 5389 5384 5380 5374 5368 5362 5357 5351 5343 5336 5328 5322 5315 5308 5303 5296 5286 5281 5275 5269 5263 5257 5251 5246 5243 5241 5240 5242 5245 5251 5260 5271
5401 5396 5392 5387 5382 5376 5372 5369 5364 5358 5352 5346 5340 5334 5327 5319 5312 5305 5298 5291 5286 5280 5271 5263 5258 5252 5247 5242 5237 5232 5229 5227 5227 5228 5232 5239 5248 5259
5385 5380 5375 5370 5365 5360 5356 5353 5348 5343 5336 5330 5324 5318 5311 5304 5297 5289 5282 5275 5269 5264 5257 5248 5242 5236 5232 5230 5224 5220 5217 5216 5215 5217 5221 5227 5237 5248
5369 5364 5359 5354 5350 5345 5341 5337 5333 5327 5321 5316 5310 5304 5297 5290 5283 5275 5268 5260 5254 5248 5242 5234 5228 5222 5217 5216 5212 5208 5206 5205 5205 5207 5211 5218 5227 5238
5354 5349 5344 5339 5335 5330 5326 5322 5317 5312 5307 5301 5296 5290 5283 5276 5269 5263 5256 5248 5241 5235 5228 5221 5215 5210 5205 5202 5200 5198 5195 5195 5195 5197 5202 5208 5218 5230
5339 5334 5330 5325 5321 5317 5313 5308 5303 5298 5293 5288 5282 5276 5270 5263 5257 5250 5244 5237 5230 5223 5215 5209 5203 5198 5193 5190 5189 5187 5186 5186 5186 5188 5193 5199 5210 5223
5325 5321 5316 5312 5308 5304 5300 5295 5290 5285 5280 5275 5270 5264 5258 5251 5245 5238 5232 5226 5219 5212 5205 5198 5192 5187 5183 5180 5178 5177 5176 5177 5178 5180 5185 5193 5203 5215
5312 5308 5304 5300 5296 5292 5288 5283 5278 5273 5268 5263 5258 5253 5247 5241 5234 5228 5221 5215 5209 5202 5196 5188 5182 5177 5174 5171 5169 5169 5168 5169 5171 5174 5179 5186 5196 5209
5301 5297 5293 5289 5285 5281 5276 5272 5267 5262 5257 5252 5247 5242 5237 5231 5224 5218 5212 5205 5199 5193 5186 5180 5174 5170 5166 5163 5162 5161 5161 5162 5164 5168 5173 5180 5191 5204
5289 5286 5282 5278 5274 5270 5266 5261 5257 5252 5247 5243 5238 5232 5227 5221 5215 5209 5203 5196 5190 5184 5178 5172 5167 5162 5159 5158 5156 5155 5155 5156 5159 5163 5168 5176 5187 5200
5279 5275 5271 5268 5264 5260 5256 5251 5247 5243 5238 5233 5228 5223 5217 5211 5206 5200 5194 5188 5183 5177 5171 5165 5160 5156 5153 5152 5151 5150 5150 5152 5154 5159 5165 5172 5183 5195
5269 5265 5262 5258 5254 5250 5246 5242 5238 5234 5229 5224 5219 5214 5208 5202 5197 5192 5186 5181 5175 5170 5165 5160 5155 5151 5148 5146 5146 5146 5146 5148 5151 5155 5162 5170 5180 5192
5259 5256 5253 5249 5245 5242 5238 5234 5230 5225 5221 5216 5210 5205 5200 5194 5189 5184 5179 5174 5169 5164 5159 5155 5150 5147 5144 5142 5141 5142 5143 5145 5148 5153 5160 5169 5178 5193
5251 5247 5244 5241 5237 5233 5229 5226 5222 5217 5213 5208 5203 5197 5192 5187 5182 5177 5173 5168 5163 5158 5154 5150 5146 5143 5140 5138 5138 5138 5140 5143 5147 5153 5161 5168 5178 5190